FENGYUN 1C DEB, 31880

Orbit data source: Space-Track

FENGYUN 1C DEB, 31880 is space debris in SSO originally from a launch on Mon, 10 May 1999 UTC launched from the Taiyaun Space Center, China (TSC). Fengyun 1C debris stems from the Chinese weather satellite Fengyun-1C, which was intentionally destroyed by a Chinese anti-satellite missile in 2007. This event dramatically increased the amount of space debris, with thousands of trackable fragments posing hazards to satellites and human spaceflight. The Fengyun 1C debris cloud has become a focal point in discussions about space sustainability and the need for international regulations to prevent the creation of new debris.

Loading next visibility...
Identifier
31880, 1999-025CKF
Orbit
SSO
Country
Flag of CNCN / PRC
Related business
Manufacturer
Unknown
Mission
Spacecraft
Bus & Motor
Unknown
Mass
Unknown
Launch date (UTC)
1999-05-10 (27 years ago)
Launch vehicle
Unknown
Launch site
Taiyaun Space Center, China (TSC)
Object type
Payload
Rocket body
Debris
Shape & HBR
Unknown shape, 0.1 m
Radar Cross Section
Small (<0.1 m²)

Expand to show TLE details & history
Last TLE update: 4 days ago

TLE from 4 days ago
0 FENGYUN 1C DEB
1 31880U 99025CKF 26205.26582624  .00000584  00000-0  48597-3 0  9998
2 31880 100.0443  30.4329 0126194 285.2311  73.4921 13.89779982660843
Epoch: 2026-07-24T06:22Z
TLE epoch observation values (Epoch: 2026-07-24T06:22:47.387Z)
Latitude
-0.00002°
Longitude
-7.25948°
Altitude
907.098 km
Speed
7.411 km/s
True Right ascension
02h 01m 43s
True Declination
0° 00' 00"
Sunlit
Object was in daylight at epoch
Visualization orbit readout
Latitude
Unknown
Longitude
Unknown
Altitude
Unknown
Speed
Unknown
Apparent Right ascension
Unknown
Apparent Declination
Unknown
Sunlit
N/A
Visualization observer readout
Local Sidereal Time
02:15:17
Azimuth
Unknown
Elevation
Unknown
Doppler factor
Unknown
Orbital elements
Apogee altitude
1,018.85 km
Perigee altitude
834.486 km
Semi-major axis
7,304.805 km
Eccentricity
0.01262
Inclination
100.0443°
RAAN
30.4329°
Arg. of periapsis
285.2311°
True anomaly
74.88467°
Mean anomaly
73.4921°
Eccentric anomaly
74.18778°
Mean motion
3.4764 °/min
Orbital period
103.56 mins
BSTAR
0.00048597
Loading maneuver chart data...
Computing Atmospheric mass density...

Documentation

Showing up to 5 results
|